Latest Weather Observations for Braidwood

IDN60901

Issued at 10:32 am EDT Saturday 20 December 2014 (issued every 10 minutes, with the page automatically refreshed every 10 minutes)

About weather observations | Map of Canberra area stations | Latest observations for Canberra area | Other Formats
Station Details ID: 069132 Name: BRAIDWOOD RACECOURSE AWS Lat: -35.43 Lon: 149.78 Height: 665.2 m
Data from the previous 72 hours. | See also: Recent months at Braidwood
Date/Time
EDT
Tmp

°C
App
Tmp
°C
Dew
Point
°C
Rel
Hum
%
Delta-T

°C
Wind Press
QNH
hPa
Press
MSL
hPa
Rain
since
9 am
mm
Dir
 
Spd
km/h
Gust
km/h
Spd
kts
Gust
kts
20/10:30am 16.9 15.1 9.3 61 4.1 NNW 9 19 5 10 1018.6 1016.4 0.0
20/10:00am 15.4 13.8 8.9 65 3.4 N 7 13 4 7 1018.7 1016.5 0.0
20/09:30am 14.9 13.4 9.3 69 3.0 N 7 15 4 8 1019.0 1016.7 0.0
20/09:00am 13.8 12.6 9.6 76 2.2 N 6 13 3 7 1019.1 1016.8 0.0
20/08:30am 12.6 11.7 9.1 79 1.8 N 4 7 2 4 1019.1 1016.8 0.0
20/08:00am 12.2 11.2 8.9 80 1.7 NNE 4 7 2 4 1019.0 1016.7 0.0
20/07:30am 11.6 10.7 9.2 85 1.2 NNE 4 7 2 4 1019.0 1016.7 0.0
20/07:00am 11.3 10.1 9.4 88 1.0 NNE 6 7 3 4 1018.5 1016.3 0.0
20/06:30am 10.8 9.5 9.1 89 0.9 NNE 6 7 3 4 1018.4 1016.2 0.0
20/05:30am 10.7 9.3 9.0 89 0.9 NNE 6 9 3 5 1018.2 1016.0 0.0
20/05:00am 10.8 9.5 9.1 89 0.9 NE 6 11 3 6 1017.9 1015.6 0.0
20/04:30am 10.9 10.4 9.2 89 0.9 NE 2 6 1 3 1017.9 1015.6 0.0
20/04:00am 10.9 9.9 9.0 88 1.0 NE 4 7 2 4 1018.0 1015.7 0.0
20/03:30am 11.0 10.9 9.4 90 0.8 CALM 0 4 0 2 1018.1 1015.9 0.0
20/03:00am 10.8 9.3 9.2 90 0.8 ENE 7 11 4 6 1018.3 1016.1 0.0
20/02:30am 11.1 10.2 9.2 88 1.0 NE 4 7 2 4 1018.4 1016.2 0.0
20/02:00am 11.3 10.4 9.2 87 1.1 NNE 4 7 2 4 1018.7 1016.5 0.0
20/01:30am 11.4 9.5 9.1 86 1.2 ENE 9 9 5 5 1019.0 1016.7 0.0
20/01:00am 11.4 9.5 9.1 86 1.2 ENE 9 15 5 8 1019.1 1016.8 0.0
20/12:30am 11.4 9.1 9.1 86 1.2 ENE 11 15 6 8 1019.2 1016.9 0.0
 
Date/Time
EDT
Tmp

°C
App
Tmp
°C
Dew
Point
°C
Rel
Hum
%
Delta-T

°C
Wind Press
QNH
hPa
Press
MSL
hPa
Rain
since
9 am
mm
Dir
 
Spd
km/h
Gust
km/h
Spd
kts
Gust
kts
19/11:30pm 11.6 10.1 9.0 84 1.3 E 7 9 4 5 1019.4 1017.2 0.0
19/11:00pm 11.7 9.4 8.9 83 1.4 ENE 11 13 6 7 1019.5 1017.3 0.0
19/10:30pm 12.0 10.4 8.8 81 1.7 E 7 13 4 7 1019.5 1017.3 0.0
19/10:00pm 12.2 10.6 8.7 79 1.8 ESE 7 11 4 6 1019.3 1017.0 0.0
19/09:30pm 12.3 10.2 8.4 77 2.0 E 9 13 5 7 1019.0 1016.7 0.0
19/09:00pm 12.3 9.4 8.2 76 2.1 ESE 13 19 7 10 1018.6 1016.4 0.0
19/08:30pm 12.3 8.7 8.2 76 2.1 ESE 17 22 9 12 1018.3 1016.1 0.0
19/08:00pm 12.4 8.8 8.3 76 2.1 ESE 17 22 9 12 1017.8 1015.5 0.0
19/07:30pm 12.7 8.8 8.6 76 2.1 E 19 26 10 14 1017.2 1015.0 0.0
19/07:00pm 12.9 8.0 8.4 74 2.3 ESE 24 32 13 17 1016.5 1014.2 0.0
19/06:30pm 14.0 9.1 8.6 70 2.8 ESE 24 32 13 17 1015.9 1013.6 0.0
19/06:00pm 14.8 9.8 8.1 64 3.5 ESE 24 32 13 17 1015.3 1013.0 0.0
19/05:30pm 15.9 11.5 9.1 64 3.6 ESE 22 28 12 15 1014.6 1012.3 0.0
19/05:00pm 16.2 11.7 8.4 60 4.1 ESE 22 30 12 16 1014.4 1012.1 0.0
19/04:30pm 17.9 14.0 9.5 58 4.6 ESE 20 26 11 14 1013.8 1011.5 0.0
19/04:00pm 17.9 14.2 10.0 60 4.3 ESE 20 28 11 15 1013.7 1011.4 0.0
19/03:30pm 18.3 14.6 10.2 59 4.5 ESE 20 28 11 15 1013.6 1011.3 0.0
19/03:00pm 18.6 15.0 10.4 59 4.5 SE 20 28 11 15 1013.3 1011.0 0.0
19/02:30pm 19.3 15.9 11.3 60 4.5 ESE 20 26 11 14 1013.2 1010.9 0.0
19/02:00pm 17.6 13.9 10.0 61 4.2 ESE 20 30 11 16 1013.2 1010.9 0.0
19/01:30pm 20.1 18.4 9.7 51 5.7 ESE 9 20 5 11 1013.0 1010.7 0.0
19/01:00pm 20.4 19.0 8.7 47 6.4 SSE 6 9 3 5 1013.0 1010.7 0.0
19/12:30pm 20.2 18.5 7.6 44 6.7 NNW 6 11 3 6 1013.2 1010.9 0.0
19/12:00pm 18.3 16.7 6.5 46 6.1 NNE 4 11 2 6 1013.3 1011.0 0.0
19/11:30am 18.5 17.0 7.0 47 6.0 W 4 9 2 5 1013.4 1011.1 0.0
19/11:00am 18.7 17.7 8.7 52 5.4 NE 4 19 2 10 1013.5 1011.2 0.0
19/10:30am 17.7 16.0 7.4 51 5.4 NNW 6 11 3 6 1013.5 1011.2 0.0
19/10:00am 16.8 15.1 7.4 54 4.9 N 6 11 3 6 1013.5 1011.2 0.0
19/09:30am 16.7 15.6 9.9 64 3.7 N 6 9 3 5 1013.5 1011.2 0.0
19/09:00am 14.4 12.7 8.4 67 3.1 NW 7 13 4 7 1013.7 1011.4 0.0
19/08:30am 14.7 13.5 9.5 71 2.8 NE 6 11 3 6 1013.5 1011.2 0.0
19/08:00am 12.7 11.8 9.2 79 1.8 NNE 4 6 2 3 1013.3 1011.0 0.0
19/07:30am 13.1 13.1 9.9 81 1.7 CALM 0 4 0 2 1012.8 1010.5 0.0
19/07:00am 11.5 10.5 10.2 92 0.7 ESE 6 7 3 4 1012.8 1010.5 0.0
19/06:30am 11.4 10.7 10.1 92 0.7 SE 4 7 2 4 1012.4 1010.1 0.0
19/06:00am 11.4 11.6 10.5 94 0.5 CALM 0 0 0 0 1012.0 1009.7 0.0
19/05:30am 11.2 11.0 10.3 94 0.5 ENE 2 6 1 3 1011.7 1009.4 0.0
19/05:00am 10.6 10.6 9.7 94 0.5 CALM 0 0 0 0 1011.3 1008.9 0.0
19/04:30am 10.2 10.0 9.1 93 0.6 CALM 0 0 0 0 1011.0 1008.6 0.0
19/04:00am 10.9 9.8 9.8 93 0.6 ESE 6 11 3 6 1010.5 1008.2 0.0
19/03:30am 11.4 9.8 10.3 93 0.6 SE 9 13 5 7 1010.2 1007.9 0.0
19/03:00am 12.1 10.8 11.2 94 0.5 ESE 9 22 5 12 1009.8 1007.4 0.0
19/02:30am 11.4 9.5 7.7 78 1.9 ESE 7 15 4 8 1009.5 1007.1 0.0
19/02:00am 12.3 10.9 3.8 56 4.0 CALM 0 0 0 0 1009.2 1006.9 0.0
19/01:30am 14.7 11.3 3.8 48 5.2 W 11 17 6 9 1008.8 1006.5 0.0
19/01:00am 15.7 12.6 3.5 44 5.8 W 9 17 5 9 1008.9 1006.6 0.0
19/12:30am 14.6 12.1 3.7 48 5.2 W 6 9 3 5 1008.8 1006.5 0.0
19/12:00am 16.1 12.8 2.2 39 6.5 W 9 15 5 8 1008.8 1006.5 0.0
 
Date/Time
EDT
Tmp

°C
App
Tmp
°C
Dew
Point
°C
Rel
Hum
%
Delta-T

°C
Wind Press
QNH
hPa
Press
MSL
hPa
Rain
since
9 am
mm
Dir
 
Spd
km/h
Gust
km/h
Spd
kts
Gust
kts
18/11:30pm 17.6 14.5 1.2 33 7.5 W 7 13 4 7 1008.7 1006.3 0.0
18/11:00pm 17.8 14.8 2.2 35 7.4 WSW 7 15 4 8 1008.6 1006.2 0.0
18/10:30pm 14.2 12.7 2.8 46 5.3 CALM 0 0 0 0 1008.6 1006.2 0.0
18/10:00pm 17.1 15.0 1.5 35 7.2 W 2 6 1 3 1008.4 1006.0 0.0
18/09:30pm 18.8 15.2 0.9 30 8.3 WNW 9 13 5 7 1008.3 1005.9 0.0
18/09:00pm 18.4 15.3 1.4 32 7.9 WNW 7 19 4 10 1008.1 1005.7 0.0
18/08:30pm 19.2 16.7 1.7 31 8.2 NW 4 7 2 4 1007.9 1005.5 0.0
18/08:00pm 20.5 16.9 0.9 27 9.2 WNW 9 13 5 7 1007.8 1005.4 0.0
18/07:30pm 22.9 18.3 1.3 24 10.4 WNW 15 28 8 15 1007.3 1004.9 0.0
18/07:00pm 23.7 18.1 1.4 23 10.8 WNW 20 28 11 15 1006.9 1004.5 0.0
18/06:30pm 24.1 17.3 1.1 22 11.1 W 26 35 14 19 1006.9 1004.5 0.0
18/06:00pm 24.6 19.4 3.3 25 10.8 WNW 20 30 11 16 1006.8 1004.4 0.0
18/05:30pm 24.9 18.5 3.0 24 11.0 WNW 26 50 14 27 1006.6 1004.2 0.0
18/05:24pm 24.6 17.2 2.1 23 11.1 WNW 30 50 16 27 1006.6 1004.2 0.0
18/05:00pm 25.1 17.8 2.5 23 11.3 WNW 30 43 16 23 1006.3 1003.9 0.0
18/04:36pm 25.5 17.8 2.2 22 11.6 WNW 32 52 17 28 1006.0 1003.6 0.0
18/04:30pm 25.3 18.4 2.7 23 11.3 NW 28 41 15 22 1006.0 1003.6 0.0
18/04:00pm 26.1 21.6 6.2 28 10.7 NW 19 33 10 18 1005.8 1003.4 0.0
18/03:30pm 25.5 20.6 5.1 27 10.7 NW 20 33 11 18 1006.2 1003.8 0.0
18/03:00pm 25.6 21.4 5.8 28 10.5 NNW 17 32 9 17 1006.4 1004.0 0.0
18/02:30pm 25.0 21.0 4.7 27 10.5 NW 15 28 8 15 1006.5 1004.1 0.0
18/02:00pm 24.6 20.5 6.4 31 9.7 NW 17 30 9 16 1007.0 1004.6 0.0
18/01:30pm 23.9 20.7 6.7 33 9.2 NW 13 26 7 14 1007.3 1004.9 0.0
18/01:00pm 23.8 21.1 9.0 39 8.2 NW 13 24 7 13 1007.8 1005.4 0.0
18/12:30pm 22.8 18.5 7.0 36 8.4 NW 19 28 10 15 1008.1 1005.7 0.0
18/12:00pm 22.2 21.3 11.3 50 6.3 NW 7 13 4 7 1008.4 1006.0 0.0
18/11:30am 21.3 20.8 11.9 55 5.4 N 6 11 3 6 1009.0 1006.7 0.0
18/11:00am 19.9 19.0 11.4 58 4.8 NNE 7 13 4 7 1009.7 1007.3 0.0
18/10:30am 18.4 17.4 11.0 62 4.1 N 7 13 4 7 1010.0 1007.6 0.0
18/10:00am 18.0 17.3 11.3 65 3.8 NNW 6 9 3 5 1010.3 1008.0 0.0
18/09:30am 16.1 15.1 11.1 72 2.8 NNW 7 13 4 7 1010.5 1008.2 0.0
18/09:00am 15.5 14.5 10.9 74 2.5 N 7 13 4 7 1010.6 1008.3 0.0
18/08:30am 15.3 14.7 11.7 79 2.0 N 6 9 3 5 1011.1 1008.7 0.0
18/08:00am 14.2 13.5 11.4 83 1.5 NNE 6 11 3 6 1010.8 1008.5 0.0
18/07:30am 13.4 13.1 11.3 87 1.2 N 4 7 2 4 1011.0 1008.6 0.0
18/07:00am 12.8 13.2 11.2 90 0.9 CALM 0 0 0 0 1010.6 1008.3 0.0
18/06:30am 12.1 12.3 10.5 90 0.9 CALM 0 0 0 0 1010.5 1008.2 0.0
18/06:00am 11.9 12.0 10.1 89 1.0 CALM 0 2 0 1 1010.4 1008.1 0.0
18/05:30am 12.0 12.1 10.1 88 1.0 CALM 0 2 0 1 1010.2 1007.9 0.0
18/05:00am 12.3 11.6 10.2 87 1.1 NNE 4 9 2 5 1010.3 1008.0 0.0
18/04:30am 12.3 11.3 10.2 87 1.1 NE 6 9 3 5 1010.1 1007.8 0.0
18/04:00am 12.2 11.1 9.9 86 1.2 NE 6 11 3 6 1010.0 1007.6 0.0
18/03:30am 12.1 11.0 9.8 86 1.2 NE 6 11 3 6 1009.9 1007.5 0.0
18/03:00am 12.1 11.3 9.8 86 1.2 NE 4 11 2 6 1010.3 1008.0 0.0
18/02:30am 12.0 10.8 9.6 85 1.3 NE 6 9 3 5 1010.5 1008.2 0.0
18/02:00am 12.0 10.6 9.6 85 1.3 NE 7 11 4 6 1010.6 1008.3 0.0
18/01:30am 12.1 11.6 9.5 84 1.4 NE 2 7 1 4 1011.2 1008.8 0.0
18/01:00am 12.1 12.0 9.5 84 1.4 CALM 0 0 0 0 1011.3 1008.9 0.0
18/12:30am 12.0 10.8 9.4 84 1.4 ENE 6 9 3 5 1011.7 1009.4 0.0
18/12:00am 11.9 11.1 9.5 85 1.3 ENE 4 6 2 3 1012.0 1009.7 0.0
 
Date/Time
EDT
Tmp

°C
App
Tmp
°C
Dew
Point
°C
Rel
Hum
%
Delta-T

°C
Wind Press
QNH
hPa
Press
MSL
hPa
Rain
since
9 am
mm
Dir
 
Spd
km/h
Gust
km/h
Spd
kts
Gust
kts
17/11:30pm 11.9 10.6 9.3 84 1.4 ENE 6 9 3 5 1012.2 1009.9 0.0
17/11:00pm 11.8 10.3 9.2 84 1.4 ENE 7 11 4 6 1012.4 1010.1 0.0
17/10:30pm 12.0 10.5 9.2 83 1.5 NE 7 17 4 9 1012.6 1010.2 0.0
17/10:00pm 12.3 10.3 8.6 78 1.9 ENE 9 15 5 8 1012.2 1009.9 0.0
17/09:30pm 12.3 10.3 8.6 78 1.9 E 9 13 5 7 1012.0 1009.7 0.0
17/09:00pm 12.3 10.4 9.0 80 1.7 E 9 15 5 8 1011.7 1009.4 0.0
17/08:30pm 12.4 10.1 8.9 79 1.8 ESE 11 17 6 9 1011.4 1009.0 0.0
17/08:00pm 12.4 9.6 8.5 77 2.0 E 13 20 7 11 1011.2 1008.8 0.0
17/07:30pm 12.6 9.0 8.5 76 2.1 ESE 17 20 9 11 1010.7 1008.4 0.0
17/07:00pm 13.2 9.7 8.9 75 2.2 ESE 17 22 9 12 1010.3 1008.0 0.0
17/06:30pm 13.6 10.2 9.1 74 2.4 E 17 22 9 12 1009.8 1007.4 0.0
17/06:00pm 14.3 10.6 9.3 72 2.7 ESE 19 24 10 13 1009.4 1007.0 0.0
17/05:30pm 15.1 11.4 9.5 69 3.0 E 19 22 10 12 1009.0 1006.7 0.0
17/05:00pm 16.2 13.1 10.3 68 3.2 E 17 26 9 14 1008.7 1006.3 0.0
17/04:30pm 16.4 12.3 10.0 66 3.5 ESE 22 33 12 18 1008.7 1006.3 0.0
17/04:00pm 18.1 14.7 11.2 64 3.9 E 20 28 11 15 1008.5 1006.1 0.0
17/03:30pm 18.3 14.8 10.9 62 4.1 E 20 28 11 15 1008.3 1005.9 0.0
17/03:00pm 19.1 17.1 12.8 67 3.7 ESE 15 22 8 12 1008.2 1005.8 0.0
17/02:30pm 18.1 14.8 11.7 66 3.6 E 20 30 11 16 1008.2 1005.8 0.0
17/02:00pm 18.5 16.0 11.1 62 4.2 ENE 15 24 8 13 1008.0 1005.6 0.0
17/01:30pm 18.5 15.8 11.6 64 3.9 ENE 17 28 9 15 1008.0 1005.6 0.0
17/01:00pm 18.3 15.2 11.6 65 3.8 ENE 19 30 10 16 1007.9 1005.5 0.0
17/12:30pm 18.1 16.2 11.7 66 3.6 ENE 13 26 7 14 1007.6 1005.3 0.0
17/12:00pm 17.8 15.3 11.1 65 3.8 E 15 22 8 12 1007.8 1005.4 0.0
17/11:30am 17.8 15.1 11.8 68 3.4 ENE 17 24 9 13 1007.6 1005.3 0.0
17/11:00am 17.2 14.7 11.0 67 3.5 ENE 15 24 8 13 1007.6 1005.3 0.0

Latest Capital City Observations: Canberra | Sydney | Melbourne | Brisbane | Adelaide | Perth | Hobart | Darwin

Other Formats:

Comma delimited format used in spreadsheet applications
http://www.bom.gov.au/fwo/IDN60903/IDN60903.94927.axf

JavaScript Object Notation format (JSON) in row-major order
http://www.bom.gov.au/fwo/IDN60903/IDN60903.94927.json